When you browse on this site, cookies collect data to enhance your experience and personalize the content and advertising you see.
Visit our Privacy Policy to learn more. By continuing to use the site, you agree to this use of cookies and data.
  • In Czech Republic
  • List of Countries
  • For 7 days
  • Water Temperature
  • Weather Map
  • Weather Widgets
  • user-avatar
    Login

    Hourly Weather Hobart

    Today, 14 November, Thursday

    Time Temperature Precipitation Wind Pressure Humidity
    00:00 +7°C° 0 mm 3 mps 740 mmHg 80%
    01:00 +7°C° 0 mm 3 mps 739 mmHg 80%
    02:00 +8°C° 0 mm 3 mps 739 mmHg 81%
    03:00 +9°C° 0 mm 3 mps 738 mmHg 83%
    04:00 +9°C° 0 mm 3 mps 737 mmHg 83%
    05:00 +10°C° 0 mm 3 mps 738 mmHg 82%
    06:00 +11°C° 0 mm 4 mps 738 mmHg 80%
    07:00 +12°C° 0 mm 4 mps 738 mmHg 79%
    08:00 +13°C° 0 mm 5 mps 738 mmHg 73%
    09:00 +13°C° 0 mm 5 mps 738 mmHg 67%
    10:00 +12°C° 0 mm 7 mps 737 mmHg 61%
    11:00 +14°C° 0 mm 7 mps 737 mmHg 58%
    12:00 +15°C° 0 mm 7 mps 737 mmHg 54%
    13:00 +16°C° 0 mm 7 mps 737 mmHg 51%
    14:00 +16°C° 0 mm 8 mps 736 mmHg 50%
    15:00 +16°C° 0 mm 8 mps 736 mmHg 49%
    16:00 +15°C° 0 mm 6 mps 735 mmHg 50%
    17:00 +14°C° 0 mm 6 mps 735 mmHg 55%
    18:00 +13°C° 0 mm 6 mps 735 mmHg 60%
    19:00 +12°C° 0 mm 5 mps 735 mmHg 65%
    20:00 +10°C° 0.1 mm 5 mps 735 mmHg 70%
    21:00 +10°C° 0.1 mm 5 mps 735 mmHg 74%
    22:00 +9°C° 0.1 mm 5 mps 735 mmHg 79%
    23:00 +9°C° 0 mm 5 mps 735 mmHg 76%

    Tomorrow, 15 November, Friday

    Time Temperature Precipitation Wind Pressure Humidity
    00:00 +9°C° 0 mm 5 mps 735 mmHg 73%
    01:00 +9°C° 0 mm 5 mps 735 mmHg 70%
    02:00 +8°C° 0 mm 5 mps 735 mmHg 69%
    03:00 +7°C° 0 mm 4 mps 735 mmHg 68%
    04:00 +7°C° 0 mm 4 mps 735 mmHg 67%
    05:00 +7°C° 0 mm 4 mps 735 mmHg 64%
    06:00 +8°C° 0 mm 5 mps 736 mmHg 61%
    07:00 +8°C° 0 mm 6 mps 736 mmHg 58%
    08:00 +9°C° 0 mm 6 mps 736 mmHg 57%
    09:00 +9°C° 0 mm 6 mps 736 mmHg 55%
    10:00 +10°C° 0 mm 6 mps 736 mmHg 54%
    11:00 +10°C° 0.1 mm 7 mps 736 mmHg 55%
    12:00 +10°C° 0.1 mm 7 mps 736 mmHg 56%
    13:00 +10°C° 0.1 mm 7 mps 737 mmHg 57%
    14:00 +10°C° 0.2 mm 7 mps 737 mmHg 58%
    15:00 +9°C° 0.2 mm 7 mps 737 mmHg 59%
    16:00 +9°C° 0.2 mm 7 mps 737 mmHg 60%
    17:00 +8°C° 0 mm 6 mps 738 mmHg 62%
    18:00 +7°C° 0 mm 6 mps 738 mmHg 64%
    19:00 +7°C° 0 mm 5 mps 739 mmHg 66%
    20:00 +6°C° 0 mm 5 mps 739 mmHg 71%
    21:00 +5°C° 0 mm 5 mps 740 mmHg 77%
    22:00 +5°C° 0 mm 5 mps 740 mmHg 82%
    23:00 +3°C° 0 mm 5 mps 740 mmHg 83%

    Day after tomorrow, 16 November, Saturday

    Time Temperature Precipitation Wind Pressure Humidity
    00:00 +4°C° 0 mm 4 mps 740 mmHg 84%
    01:00 +4°C° 0 mm 4 mps 740 mmHg 86%
    02:00 +4°C° 0.1 mm 4 mps 740 mmHg 86%
    03:00 +4°C° 0.1 mm 4 mps 740 mmHg 86%
    04:00 +3°C° 0.1 mm 4 mps 740 mmHg 87%
    05:00 +3°C° 0.1 mm 5 mps 741 mmHg 83%
    06:00 +4°C° 0.1 mm 6 mps 741 mmHg 80%
    07:00 +5°C° 0.1 mm 6 mps 742 mmHg 76%
    08:00 +8°C° 0.1 mm 6 mps 742 mmHg 65%
    09:00 +9°C° 0.1 mm 6 mps 742 mmHg 55%
    10:00 +10°C° 0.1 mm 7 mps 742 mmHg 44%
    11:00 +11°C° 0 mm 7 mps 742 mmHg 43%
    12:00 +11°C° 0 mm 7 mps 742 mmHg 43%
    13:00 +11°C° 0 mm 7 mps 742 mmHg 43%
    14:00 +11°C° 0 mm 7 mps 742 mmHg 45%
    15:00 +10°C° 0 mm 7 mps 742 mmHg 48%
    16:00 +10°C° 0 mm 7 mps 742 mmHg 50%
    17:00 +9°C° 0 mm 6 mps 743 mmHg 55%
    18:00 +8°C° 0 mm 5 mps 743 mmHg 59%
    19:00 +7°C° 0 mm 5 mps 744 mmHg 63%
    20:00 +6°C° 0 mm 4 mps 744 mmHg 68%
    21:00 +6°C° 0 mm 4 mps 744 mmHg 73%
    22:00 +5°C° 0 mm 3 mps 744 mmHg 78%
    23:00 +5°C° 0 mm 3 mps 744 mmHg 80%

    17 November, Sunday

    Time Temperature Precipitation Wind Pressure Humidity
    00:00 +4°C° 0 mm 3 mps 744 mmHg 82%
    01:00 +4°C° 0 mm 3 mps 744 mmHg 84%
    02:00 +3°C° 0 mm 3 mps 744 mmHg 85%
    03:00 +3°C° 0 mm 3 mps 745 mmHg 86%
    04:00 +2°C° 0 mm 3 mps 745 mmHg 88%
    05:00 +4°C° 0 mm 4 mps 746 mmHg 80%
    06:00 +5°C° 0 mm 4 mps 746 mmHg 73%
    07:00 +6°C° 0 mm 5 mps 746 mmHg 66%
    08:00 +7°C° 0 mm 4 mps 747 mmHg 62%
    09:00 +8°C° 0 mm 4 mps 747 mmHg 59%
    10:00 +10°C° 0 mm 4 mps 747 mmHg 55%
    11:00 +11°C° 0 mm 4 mps 747 mmHg 51%
    12:00 +12°C° 0 mm 4 mps 747 mmHg 47%
    13:00 +13°C° 0 mm 4 mps 747 mmHg 44%
    14:00 +13°C° 0 mm 4 mps 747 mmHg 45%
    15:00 +13°C° 0 mm 4 mps 746 mmHg 45%
    16:00 +12°C° 0 mm 4 mps 746 mmHg 46%
    17:00 +11°C° 0 mm 3 mps 746 mmHg 51%
    18:00 +10°C° 0 mm 3 mps 746 mmHg 55%
    19:00 +9°C° 0 mm 3 mps 746 mmHg 60%
    20:00 +8°C° 0 mm 3 mps 746 mmHg 63%
    21:00 +7°C° 0 mm 3 mps 746 mmHg 67%
    22:00 +7°C° 0 mm 3 mps 745 mmHg 71%
    23:00 +7°C° 0 mm 3 mps 745 mmHg 73%

    18 November, Monday

    Time Temperature Precipitation Wind Pressure Humidity
    00:00 +6°C° 0 mm 4 mps 744 mmHg 75%
    01:00 +7°C° 0 mm 4 mps 743 mmHg 77%
    02:00 +7°C° 0 mm 4 mps 742 mmHg 78%
    03:00 +8°C° 0 mm 4 mps 742 mmHg 80%
    04:00 +8°C° 0 mm 5 mps 741 mmHg 81%
    05:00 +9°C° 0 mm 5 mps 741 mmHg 77%
    06:00 +11°C° 0 mm 4 mps 741 mmHg 73%
    07:00 +12°C° 0 mm 4 mps 741 mmHg 70%
    08:00 +13°C° 0 mm 5 mps 741 mmHg 64%
    09:00 +14°C° 0 mm 5 mps 740 mmHg 59%
    10:00 +15°C° 0 mm 6 mps 740 mmHg 54%
    11:00 +15°C° 0 mm 6 mps 740 mmHg 52%
    12:00 +16°C° 0 mm 6 mps 739 mmHg 49%
    13:00 +17°C° 0 mm 6 mps 739 mmHg 47%
    14:00 +16°C° 0 mm 6 mps 739 mmHg 50%
    15:00 +16°C° 0 mm 5 mps 739 mmHg 53%
    16:00 +15°C° 0 mm 5 mps 739 mmHg 56%
    17:00 +14°C° 0 mm 4 mps 739 mmHg 62%
    18:00 +13°C° 0 mm 3 mps 739 mmHg 67%
    19:00 +12°C° 0 mm 3 mps 739 mmHg 72%
    20:00 +12°C° 0 mm 3 mps 739 mmHg 73%
    21:00 +12°C° 0 mm 3 mps 739 mmHg 74%
    22:00 +12°C° 0 mm 3 mps 739 mmHg 75%
    23:00 +12°C° 0 mm 3 mps 739 mmHg 77%

    19 November, Tuesday

    Time Temperature Precipitation Wind Pressure Humidity
    00:00 +11°C° 0 mm 3 mps 738 mmHg 80%
    01:00 +11°C° 0 mm 3 mps 738 mmHg 83%
    02:00 +12°C° 0 mm 2 mps 738 mmHg 84%
    03:00 +12°C° 0 mm 2 mps 738 mmHg 86%
    04:00 +12°C° 0 mm 2 mps 738 mmHg 88%
    05:00 +12°C° 0.1 mm 2 mps 738 mmHg 85%
    06:00 +13°C° 0.1 mm 2 mps 739 mmHg 83%
    07:00 +13°C° 0.1 mm 2 mps 739 mmHg 80%
    08:00 +13°C° 0 mm 3 mps 739 mmHg 71%
    09:00 +14°C° 0 mm 3 mps 740 mmHg 62%
    10:00 +15°C° 0 mm 4 mps 740 mmHg 52%
    11:00 +15°C° 0 mm 5 mps 740 mmHg 49%
    12:00 +15°C° 0 mm 5 mps 741 mmHg 46%
    13:00 +16°C° 0 mm 5 mps 741 mmHg 43%
    14:00 +15°C° 0 mm 6 mps 742 mmHg 44%
    15:00 +14°C° 0 mm 6 mps 742 mmHg 46%
    16:00 +13°C° 0 mm 6 mps 743 mmHg 47%
    17:00 +12°C° 0 mm 5 mps 743 mmHg 52%
    18:00 +9°C° 0 mm 5 mps 744 mmHg 56%
    19:00 +8°C° 0 mm 4 mps 745 mmHg 61%
    20:00 +7°C° 0 mm 4 mps 746 mmHg 65%
    21:00 +7°C° 0 mm 3 mps 746 mmHg 69%
    22:00 +5°C° 0 mm 3 mps 747 mmHg 73%
    23:00 +6°C° 0 mm 2 mps 747 mmHg 77%
    Show more